James A Rhodes (I43)

 

Airport Diagram
No Airport Diagram Available
Current Weather/Forecast (VFR Conditions)
METAR KI43 190015Z AUTO 31003KT 10SM CLR 15/M02 A2987 RMK AO2
TAF

Airport Information

All Charts
General
Chart Name View
TAKEOFF MINIMUMS
TAKEOFF MINIMUMS

Approaches
Chart Name Download
RNAV (GPS) RWY 01
RNAV (GPS) RWY 19
VOR/DME-A
RNAV (GPS) RWY 01
RNAV (GPS) RWY 19
VOR/DME-A


Airport Statistics
Departures Arrivals Local
All Collected Stats since June 2016: 2 3 0
2021 Stats: 2 2 0
April Stats: 0 0 0

Inbound Traffic (Arrivals) - 0

No inbound traffic.


Outbound Traffic (Departures) - 0

No outbound traffic.


Local Traffic (Pattern) - 0

No local traffic.